Find Local Weather

World > North America > United States > Indiana

Michigan City, Indiana Regional Weather

Lat: 41.71N, Lon: 86.88W
Wx Zone: INZ003
Feedback
Expires:201804241500;;428486
ASUS43 KIND 241400
RWRIN 

WEATHER ROUNDUP FOR INDIANA
NATIONAL WEATHER SERVICE INDIANAPOLIS IN
1000 AM EDT TUE APR 24 2018

NOTE: "FAIR" INDICATES FEW OR NO CLOUDS BELOW 12,000 FEET WITH NO
SIGNIFICANT WEATHER AND/OR OBSTRUCTIONS TO VISIBILITY.

* - STATION DOES NOT REPORT WEATHER SUCH AS PRECIPITATION OR FOG.

+ - STATION NOT QUALITY CONTROLLED BY THE NATIONAL WEATHER SERVICE.
    USE DATA WITH CAUTION...ESPECIALLY DEWPOINT AND RELATIVE
    HUMIDITY OBSERVATIONS.


INZ001>003-010>013-019-020-241500-
NORTHWEST INDIANA
  
CITY           SKY/WX    TMP DP  RH WIND       PRES   REMARKS
GARY /AIRPORT/ PTSUNNY   50  45  81 CALM      30.07S                  
KNOX *+        CLOUDY    54  50  87 NE6       30.04F                  
MONTICELLO +   CLOUDY    54  50  86 E7        30.01F                  
VALPARAISO     CLOUDY    56  51  84 NE10      30.05S                  

$$


SKY/WX - Weather  TMP - Temperature  DP - Dewpoint  RH - Relative Humidity
WIND - Wind Direction/Speed PRES - Barometric Pressure